SCP
0 0 0 0 0 0 0 0 0 0 0 0 0 0 0 0 0 0 0 0 0 0 0 0 0 0 0 0 0 0 0 0 0 0 0 0 0 0
0 0 0 0 0 0 0 0 0 0 0 0 0 0 0 0 0 0 0 0 0 0 0 0 0 0 0 0 0 0 0 0 0 0 0 0 0 0
0 0 0 0 0 0 0 0 0 0 0 0 0 0 0 0 0 0 0 0 0 0 0 0 0 0 0 0 0 0 0 0 0 0 0 0 0 0
0 0 0 0 0 0 0 0 0 0 0 0 0 0 0 0 0 0 0 0 0 0 0 0 0 0 0 0 0 0 0 0 0 0 0 0 0 0
0 0 0 0 0 0 0 0 0 0 0 0 0 0 0 0 0 0 0 0 0 0 0 0 0 0 0 0 0 0 0 0 0 0 0 0 0 0
0 0 0 0 0 0 0 0 0 0 0 0 0 0 0 0 0 0 0 0 0 0 0 0 0 0 0 0 0 0 0 0 0 0 0 0 0 0
0 0 0 0 0 0 0 0 0 0 0 0 0 0 0 0 0 0 0 0 0 0 0 0 0 0 0 0 0 0 0 0 0 0 0 0 0 0
0 0 0 0 0 0 0 0 0 0 0 0 0 0 0 0 0 0 0 0 0 0 0 0 0 0 0 0 0 0 0 0 0 0 0 0 0 0
0 0 0 0 0 0 0 0 0 0 0 0 0 0 0 0 0 0 0 0 0 0 0 0 0 0 0 0 0 0 0 0 0 0 0 0 0 0
0 0 0 0 0 0 0 0 0 0 0 0 0 0 0 0 0 0 0 0 0 0 0 0 0 0 0 0 0 0 0 0 0 0 0 0 0 0
0 0 0 0 0 0 0 0 0 0 0 0 0 0 0 0 0 0 0 0 0 0 0 0 0 0 0 0 0 0 0 0 0 0 0 0 0 0
0 0 0 0 0 0 0 0 0 0 0 0 0 0 0 0 0 0 0 0 0 0 0 0 0 0 0 0 0 0 0 0 0 0 0 0 0 0
0 0 0 0 0 0 0 0 0 0 0 0 0 0 0 0 0 0 0 0 0 0 0 0 0 0 0 0 0 0 0 0 0 0 0 0 0 0
0 0 0 0 0 0 0 0 0 0 0 0 0 0 0 0 0 0 0 0 0 0 0 0 0 0 0 0 0 0 0 0 0 0 0 0 0 0
0 0 0 0 0 0 0 0 0 0 0 0 0 0 0 0 0 0 0 0 0 0 0 0 0 0 0 0 0 0 0 0 0 0 0 0 0 0
0 0 0 0 0 0 0 0 0 0 0 0 0 0 0 0 0 0 0 0 0 0 0 0 0 0 0 0 0 0 0 0 0 0 0 0 0 0
0 0 0 0 0 0 0 0 0 0 0 0 0 0 0 0 0 0 0 0 0 0 0 0 0 0 0 0 0 0 0 0 0 0 0 0 0 0
0 0 0 0 0 0 0 0 0 0 0 0 0 0 0 0 0 0 0 0 0 0 0 0 0 0 0 0 0 0 0 0 0 0 0 0 0 0
0 0 0 0 0 0 0 0 0 0 0 0 0 0 0 0 0 0 0 0 0 0 0 0 0 0 0 0 0 0 0 0 0 0 0 0 0 0
0 0 0 0 0 0 0 0 0 0 0 0 0 0 0 0 0 0 0 0 0 0 0 0 0 0 0 0 0 0 0 0 0 0 0 0 0 0
0 0 0 0 0 0 0 0 0 0 0 0 0 0 0 0 0 0 0 0 0 0 0 0 0 0 0 0 0 0 0 0 0 0 0 0 0 0
0 0 0 0 0 0 0 0 0 0 0 0 0 0 0 0 0 0 0 0 0 0 0 0 0 0 0 0 0 0 0 0 0 0 0 0 0 0
0 0 0 0 0 0 0 0 0 0 0 0 0 0 0 0 0 0 0 0 0 0 0 0 0 0 0 0 0 0 0 0 0 0 0 0 0 0
Wind_Speed_500mb
81 77 70 66 60 52 51 45 46 32 29 33 26 29 32 39 49 58 58 60 61 61 60 59 58 57 56 51 47 49 50 50 51 53 58 55 57 60
79 73 70 61 61 51 37 35 39 39 29 24 29 35 42 51 53 57 59 60 59 60 59 59 59 55 51 48 48 49 50 52 54 56 57 58 60 58
72 69 59 59 49 41 47 33 34 30 35 38 41 41 46 49 57 58 59 59 61 58 58 60 59 53 48 48 50 51 52 53 56 57 57 59 58 57
65 61 55 48 44 41 39 39 32 29 33 36 44 44 47 49 57 60 58 58 60 59 57 56 52 49 48 49 47 48 49 50 53 56 57 58 60 62
58 49 48 46 40 39 33 28 29 31 31 34 49 48 53 53 58 61 60 63 62 56 51 47 44 40 43 45 48 49 51 54 59 61 62 62 63 64
47 42 36 32 30 30 35 31 30 26 31 44 46 48 53 54 57 59 60 58 63 54 48 39 41 45 46 45 47 48 53 57 59 60 59 59 61 62
35 33 34 30 31 29 29 25 26 31 37 40 45 51 52 47 45 52 58 54 54 53 46 50 55 57 49 45 45 48 50 51 54 56 55 57 60 62
32 29 25 23 26 21 19 24 29 33 36 43 48 49 43 49 52 51 46 47 53 47 60 62 61 61 55 49 49 52 52 52 56 57 59 60 62 63
22 19 20 14 11 17 23 25 28 32 37 38 41 44 50 49 49 49 50 48 55 62 63 71 63 64 51 58 54 54 51 42 43 46 51 54 57 58
12 6 5 10 12 20 26 29 33 34 34 38 43 47 46 40 41 49 51 52 57 61 52 57 59 59 65 68 64 49 44 47 46 45 50 53 56 59
3 4 10 14 19 25 24 28 32 34 37 41 41 38 39 38 37 41 45 49 55 57 52 44 63 59 73 70 59 57 59 57 55 53 52 54 57 59
5 10 17 21 20 16 22 31 35 37 37 33 29 28 28 27 28 34 40 44 47 56 44 56 67 57 48 63 61 71 66 61 54 52 52 52 54 58
14 19 21 23 22 20 19 31 33 31 34 32 30 26 26 27 29 30 32 40 47 55 54 48 65 63 50 69 80 78 74 73 67 62 56 47 41 43
22 21 21 20 17 23 26 26 25 24 24 24 24 25 28 28 27 26 33 38 42 49 46 46 57 56 59 69 81 80 75 75 73 62 50 52 50 46
21 20 19 20 24 24 21 19 19 20 20 22 25 28 31 29 26 31 29 39 48 46 44 41 46 48 53 65 76 79 77 65 60 56 61 60 59 55
19 18 21 22 22 20 17 15 16 18 22 26 30 33 33 27 29 32 41 50 57 53 49 48 51 54 57 60 67 77 64 63 63 62 65 64 65 62
23 21 20 18 16 13 11 12 16 19 23 28 33 35 32 31 32 33 42 53 57 60 64 59 58 60 59 59 67 65 64 72 69 74 72 73 67 62
19 19 18 17 15 14 13 13 16 22 27 31 34 37 34 34 39 37 46 54 59 62 69 65 61 63 65 60 47 60 70 73 77 71 69 70 79 66
19 19 17 16 14 15 18 21 23 26 30 33 37 38 34 35 37 42 50 57 62 67 68 67 66 64 67 74 72 50 61 72 70 72 63 63 71 70
20 18 17 15 15 16 19 24 26 29 32 36 40 36 33 38 39 45 53 60 62 67 70 66 63 65 62 69 84 83 64 69 71 67 67 64 62 56
18 18 18 18 19 22 25 28 32 35 38 41 44 40 35 36 39 46 56 59 60 65 73 74 69 62 63 66 69 77 78 64 61 60 59 62 67 64
20 19 19 20 22 27 31 34 36 38 40 43 46 42 35 36 42 49 56 63 65 68 75 78 79 73 66 63 72 80 83 70 56 47 46 41 43 49
23 23 22 23 25 30 35 38 40 42 44 47 49 47 40 41 42 52 59 62 69 73 79 82 81 73 67 66 64 74 78 75 68 66 54 42 40 40
Wind_Direction_500mb
237 239 239 235 235 234 241 238 237 228 252 257 257 270 276 277 282 289 294 298 301 303 302 301 297 292 288 285 285 283 280 278 278 276 273 270 275 272
233 234 232 229 230 231 233 229 241 232 229 262 278 287 287 290 293 294 298 300 303 303 304 302 298 294 291 286 285 283 282 279 277 276 273 272 273 272
224 225 222 223 227 223 220 235 242 254 258 270 279 288 285 287 289 293 296 298 299 301 302 299 296 293 291 287 283 280 279 277 277 276 274 273 274 270
219 217 218 218 214 224 230 225 251 270 273 289 295 287 288 292 292 295 298 301 303 305 301 295 293 293 293 287 284 282 280 279 277 276 276 276 274 272
216 215 212 213 221 227 248 266 278 279 296 297 284 293 297 299 300 302 305 305 305 305 302 300 297 295 291 289 287 282 278 276 276 274 273 273 272 271
209 209 216 226 238 257 262 267 274 298 284 274 288 296 297 301 303 305 307 309 310 313 308 306 301 299 299 295 288 287 285 283 281 280 277 273 271 270
204 212 224 233 249 258 274 297 299 282 281 292 290 293 297 300 302 305 305 310 310 316 319 316 314 314 312 302 291 288 289 288 286 282 278 275 273 270
217 217 228 245 254 288 292 277 286 290 287 280 286 288 294 301 303 306 305 310 314 319 317 307 314 312 312 305 299 298 298 295 289 282 278 275 273 271
209 222 240 284 303 280 281 288 283 271 268 278 286 292 296 300 303 306 306 304 302 311 308 304 316 309 315 306 308 307 303 297 294 286 282 278 275 273
226 298 271 256 278 284 288 286 279 282 288 290 291 293 298 303 303 301 302 299 301 309 307 300 319 311 315 314 317 315 310 306 301 292 284 280 277 274
142 253 279 297 296 288 287 288 293 299 300 294 291 293 293 293 294 294 299 300 304 311 314 304 318 312 315 317 322 323 322 317 311 301 291 284 280 277
312 302 302 302 304 308 297 293 297 301 295 297 296 295 296 297 297 297 303 305 310 314 316 315 318 321 318 317 316 317 319 319 314 308 301 293 285 277
311 312 315 309 298 289 278 293 300 303 302 304 306 308 308 309 307 307 310 311 313 310 329 316 314 315 300 307 314 315 318 319 318 314 309 302 292 281
308 308 303 300 299 297 297 294 291 293 297 299 306 313 315 316 316 317 318 314 313 317 325 315 306 310 305 304 304 316 318 314 312 312 309 307 300 291
311 309 307 305 301 303 301 299 298 300 303 309 316 321 322 321 321 318 320 320 319 325 325 324 320 317 307 303 303 309 314 316 311 309 311 308 303 297
315 313 307 306 304 304 305 305 306 311 315 319 321 322 323 319 322 322 327 329 325 331 335 334 329 323 318 315 310 309 317 303 317 316 315 307 304 301
319 309 305 303 305 305 311 316 315 315 315 317 319 321 319 316 322 322 326 329 330 331 330 333 330 324 322 321 317 318 317 318 323 322 318 311 308 307
311 308 311 317 320 321 324 325 323 318 317 318 320 319 314 315 318 320 326 329 329 331 330 334 336 330 328 323 321 324 321 318 322 319 312 302 307 310
311 310 313 316 319 325 327 328 329 325 320 320 321 318 309 309 312 320 323 328 331 333 333 338 339 334 324 313 325 315 305 322 321 320 319 312 306 308
308 308 308 308 311 315 322 324 326 324 322 323 321 314 305 308 313 321 324 326 330 335 333 336 337 334 321 312 314 325 330 318 317 316 319 314 307 309
306 306 305 307 308 312 318 322 324 325 324 325 325 315 305 302 309 319 322 326 329 330 327 332 337 334 327 324 310 309 322 323 320 318 319 312 311 311
307 303 301 300 303 308 313 318 320 322 321 319 321 314 306 300 308 316 321 324 326 328 330 331 335 333 320 313 308 313 319 326 326 322 319 314 301 289
304 302 302 299 300 303 308 313 317 320 319 318 320 319 307 300 305 313 319 321 324 327 329 326 323 325 316 313 308 309 319 324 326 323 320 324 313 305
Wind_Speed_850mb
81 77 70 66 60 52 51 45 46 32 29 33 26 29 32 39 49 58 58 60 61 61 60 59 58 57 56 51 47 49 50 50 51 53 58 55 57 60
79 73 70 61 61 51 37 35 39 39 29 24 29 35 42 51 53 57 59 60 59 60 59 59 59 55 51 48 48 49 50 52 54 56 57 58 60 58
72 69 59 59 49 41 47 33 34 30 35 38 41 41 46 49 57 58 59 59 61 58 58 60 59 53 48 48 50 51 52 53 56 57 57 59 58 57
65 61 55 48 44 41 39 39 32 29 33 36 44 44 47 49 57 60 58 58 60 59 57 56 52 49 48 49 47 48 49 50 53 56 57 58 60 62
58 49 48 46 40 39 33 28 29 31 31 34 49 48 53 53 58 61 60 63 62 56 51 47 44 40 43 45 48 49 51 54 59 61 62 62 63 64
47 42 36 32 30 30 35 31 30 26 31 44 46 48 53 54 57 59 60 58 63 54 48 39 41 45 46 45 47 48 53 57 59 60 59 59 61 62
35 33 34 30 31 29 29 25 26 31 37 40 45 51 52 47 45 52 58 54 54 53 46 50 55 57 49 45 45 48 50 51 54 56 55 57 60 62
32 29 25 23 26 21 19 24 29 33 36 43 48 49 43 49 52 51 46 47 53 47 60 62 61 61 55 49 49 52 52 52 56 57 59 60 62 63
22 19 20 14 11 17 23 25 28 32 37 38 41 44 50 49 49 49 50 48 55 62 63 71 63 64 51 58 54 54 51 42 43 46 51 54 57 58
12 6 5 10 12 20 26 29 33 34 34 38 43 47 46 40 41 49 51 52 57 61 52 57 59 59 65 68 64 49 44 47 46 45 50 53 56 59
3 4 10 14 19 25 24 28 32 34 37 41 41 38 39 38 37 41 45 49 55 57 52 44 63 59 73 70 59 57 59 57 55 53 52 54 57 59
5 10 17 21 20 16 22 31 35 37 37 33 29 28 28 27 28 34 40 44 47 56 44 56 67 57 48 63 61 71 66 61 54 52 52 52 54 58
14 19 21 23 22 20 19 31 33 31 34 32 30 26 26 27 29 30 32 40 47 55 54 48 65 63 50 69 80 78 74 73 67 62 56 47 41 43
22 21 21 20 17 23 26 26 25 24 24 24 24 25 28 28 27 26 33 38 42 49 46 46 57 56 59 69 81 80 75 75 73 62 50 52 50 46
21 20 19 20 24 24 21 19 19 20 20 22 25 28 31 29 26 31 29 39 48 46 44 41 46 48 53 65 76 79 77 65 60 56 61 60 59 55
19 18 21 22 22 20 17 15 16 18 22 26 30 33 33 27 29 32 41 50 57 53 49 48 51 54 57 60 67 77 64 63 63 62 65 64 65 62
23 21 20 18 16 13 11 12 16 19 23 28 33 35 32 31 32 33 42 53 57 60 64 59 58 60 59 59 67 65 64 72 69 74 72 73 67 62
19 19 18 17 15 14 13 13 16 22 27 31 34 37 34 34 39 37 46 54 59 62 69 65 61 63 65 60 47 60 70 73 77 71 69 70 79 66
19 19 17 16 14 15 18 21 23 26 30 33 37 38 34 35 37 42 50 57 62 67 68 67 66 64 67 74 72 50 61 72 70 72 63 63 71 70
20 18 17 15 15 16 19 24 26 29 32 36 40 36 33 38 39 45 53 60 62 67 70 66 63 65 62 69 84 83 64 69 71 67 67 64 62 56
18 18 18 18 19 22 25 28 32 35 38 41 44 40 35 36 39 46 56 59 60 65 73 74 69 62 63 66 69 77 78 64 61 60 59 62 67 64
20 19 19 20 22 27 31 34 36 38 40 43 46 42 35 36 42 49 56 63 65 68 75 78 79 73 66 63 72 80 83 70 56 47 46 41 43 49
23 23 22 23 25 30 35 38 40 42 44 47 49 47 40 41 42 52 59 62 69 73 79 82 81 73 67 66 64 74 78 75 68 66 54 42 40 40
Wind_Direction_850mb
237 239 239 235 235 234 241 238 237 228 252 257 257 270 276 277 282 289 294 298 301 303 302 301 297 292 288 285 285 283 280 278 278 276 273 270 275 272
233 234 232 229 230 231 233 229 241 232 229 262 278 287 287 290 293 294 298 300 303 303 304 302 298 294 291 286 285 283 282 279 277 276 273 272 273 272
224 225 222 223 227 223 220 235 242 254 258 270 279 288 285 287 289 293 296 298 299 301 302 299 296 293 291 287 283 280 279 277 277 276 274 273 274 270
219 217 218 218 214 224 230 225 251 270 273 289 295 287 288 292 292 295 298 301 303 305 301 295 293 293 293 287 284 282 280 279 277 276 276 276 274 272
216 215 212 213 221 227 248 266 278 279 296 297 284 293 297 299 300 302 305 305 305 305 302 300 297 295 291 289 287 282 278 276 276 274 273 273 272 271
209 209 216 226 238 257 262 267 274 298 284 274 288 296 297 301 303 305 307 309 310 313 308 306 301 299 299 295 288 287 285 283 281 280 277 273 271 270
204 212 224 233 249 258 274 297 299 282 281 292 290 293 297 300 302 305 305 310 310 316 319 316 314 314 312 302 291 288 289 288 286 282 278 275 273 270
217 217 228 245 254 288 292 277 286 290 287 280 286 288 294 301 303 306 305 310 314 319 317 307 314 312 312 305 299 298 298 295 289 282 278 275 273 271
209 222 240 284 303 280 281 288 283 271 268 278 286 292 296 300 303 306 306 304 302 311 308 304 316 309 315 306 308 307 303 297 294 286 282 278 275 273
226 298 271 256 278 284 288 286 279 282 288 290 291 293 298 303 303 301 302 299 301 309 307 300 319 311 315 314 317 315 310 306 301 292 284 280 277 274
142 253 279 297 296 288 287 288 293 299 300 294 291 293 293 293 294 294 299 300 304 311 314 304 318 312 315 317 322 323 322 317 311 301 291 284 280 277
312 302 302 302 304 308 297 293 297 301 295 297 296 295 296 297 297 297 303 305 310 314 316 315 318 321 318 317 316 317 319 319 314 308 301 293 285 277
311 312 315 309 298 289 278 293 300 303 302 304 306 308 308 309 307 307 310 311 313 310 329 316 314 315 300 307 314 315 318 319 318 314 309 302 292 281
308 308 303 300 299 297 297 294 291 293 297 299 306 313 315 316 316 317 318 314 313 317 325 315 306 310 305 304 304 316 318 314 312 312 309 307 300 291
311 309 307 305 301 303 301 299 298 300 303 309 316 321 322 321 321 318 320 320 319 325 325 324 320 317 307 303 303 309 314 316 311 309 311 308 303 297
315 313 307 306 304 304 305 305 306 311 315 319 321 322 323 319 322 322 327 329 325 331 335 334 329 323 318 315 310 309 317 303 317 316 315 307 304 301
319 309 305 303 305 305 311 316 315 315 315 317 319 321 319 316 322 322 326 329 330 331 330 333 330 324 322 321 317 318 317 318 323 322 318 311 308 307
311 308 311 317 320 321 324 325 323 318 317 318 320 319 314 315 318 320 326 329 329 331 330 334 336 330 328 323 321 324 321 318 322 319 312 302 307 310
311 310 313 316 319 325 327 328 329 325 320 320 321 318 309 309 312 320 323 328 331 333 333 338 339 334 324 313 325 315 305 322 321 320 319 312 306 308
308 308 308 308 311 315 322 324 326 324 322 323 321 314 305 308 313 321 324 326 330 335 333 336 337 334 321 312 314 325 330 318 317 316 319 314 307 309
306 306 305 307 308 312 318 322 324 325 324 325 325 315 305 302 309 319 322 326 329 330 327 332 337 334 327 324 310 309 322 323 320 318 319 312 311 311
307 303 301 300 303 308 313 318 320 322 321 319 321 314 306 300 308 316 321 324 326 328 330 331 335 333 320 313 308 313 319 326 326 322 319 314 301 289
304 302 302 299 300 303 308 313 317 320 319 318 320 319 307 300 305 313 319 321 324 327 329 326 323 325 316 313 308 309 319 324 326 323 320 324 313 305